Simultaneous Nadir Overpasses (SNOs) Predictions

Prediction of SNOs near equator between AQUA and NPP Satellite Orbit:

Table of predicted SNOs near equator for the next 14.0 days since TLE Epoch: 9/4/2015
Index Date (AQUA) Time (AQUA) AQUA Lat,Lon Date (NPP) Time (NPP) NPP Lat,Lon Distance(km) Time Diff (sec)
1 09/05/2015 14:04:06 29.96, -11.87 09/05/2015 13:54:31 30.05, -11.55 32.86 575
2 09/05/2015 14:53:29 -29.96, 155.78 09/05/2015 14:45:11 -29.98, 155.80 2.58 498
3 09/05/2015 15:35:45 3.77, -30.59 09/05/2015 15:28:33 3.77, -30.58 1.24 432
4 09/05/2015 16:21:48 8.27, 139.63 09/05/2015 16:15:48 8.32, 139.46 19.97 360
5 09/05/2015 17:10:04 -12.79, -51.76 09/05/2015 17:05:19 -12.91, -52.19 48.75 285
6 09/05/2015 17:58:10 17.39, 116.92 09/05/2015 17:54:41 17.54, 116.22 76.02 209
7 09/08/2015 06:20:36 29.99, 104.00 09/08/2015 06:11:23 30.05, 104.23 23.68 553
8 09/08/2015 07:08:13 -23.61, -86.76 09/08/2015 07:00:14 -23.61, -86.75 1.26 479
9 09/08/2015 07:50:15 -3.46, 86.82 09/08/2015 07:43:22 -3.46, 86.81 0.97 413
10 09/08/2015 08:37:56 9.58,-104.21 09/08/2015 08:32:18 9.61,-104.47 28.78 338
11 09/08/2015 09:26:11 -14.16, 64.41 09/08/2015 09:21:48 -14.25, 63.90 57.07 263
12 09/08/2015 10:14:19 18.64,-126.92 09/08/2015 10:11:11 18.82,-127.69 83.97 188
13 09/10/2015 21:47:35 -29.96, 52.25 09/10/2015 21:37:35 -30.56, 52.57 73.41 600
14 09/10/2015 22:37:05 29.97,-140.12 09/10/2015 22:28:14 30.00,-139.98 14.44 531
15 09/10/2015 23:22:37 -16.06, 30.87 09/10/2015 23:14:57 -16.06, 30.87 0.48 460
16 09/11/2015 00:05:56 -6.38,-156.68 09/10/2015 23:59:24 -6.39,-156.75 8.12 392
17 09/11/2015 00:54:04 10.87, 11.95 09/11/2015 00:48:47 10.96, 11.61 37.51 317
18 09/11/2015 01:42:19 -15.44,-179.42 09/11/2015 01:38:18 -15.54, 179.97 65.57 241
19 09/11/2015 02:30:26 19.99, -10.73 09/11/2015 02:27:40 20.16, -11.59 91.60 166
20 09/13/2015 14:04:04 -29.95, 168.13 09/13/2015 13:54:18 -30.05, 168.49 36.02 586
21 09/13/2015 14:53:34 29.96, -24.25 09/13/2015 14:45:05 29.95, -24.19 5.61 509
22 09/13/2015 15:36:54 -8.09, 148.49 09/13/2015 15:29:33 -8.09, 148.49 0.54 441
23 09/13/2015 16:22:04 -7.65, -40.53 09/13/2015 16:15:54 -7.67, -40.69 17.36 370
24 09/13/2015 17:10:11 12.21, 128.12 09/13/2015 17:05:16 12.29, 127.70 46.22 295
25 09/13/2015 17:58:27 -16.71, -63.26 09/13/2015 17:54:47 -16.87, -63.93 73.82 220
26 09/13/2015 18:46:33 21.32, 105.45 09/13/2015 18:44:09 21.50, 104.52 99.16 144
27 09/16/2015 06:20:32 -29.96, -75.99 09/16/2015 06:11:08 -30.00, -75.72 26.57 564
28 09/16/2015 07:08:51 25.70, 92.71 09/16/2015 07:00:43 25.70, 92.72 1.31 488
29 09/16/2015 07:50:28 2.41, -93.39 09/16/2015 07:43:25 2.41, -93.38 1.14 423
30 09/16/2015 08:38:09 -9.03, 75.65 09/16/2015 08:32:21 -9.06, 75.41 26.38 348
31 09/16/2015 09:26:17 13.53,-115.72 09/16/2015 09:21:44 13.63,-116.22 54.93 273
32 09/16/2015 10:14:32 -18.09, 52.93 09/16/2015 10:11:14 -18.26, 52.17 81.91 198




NCC Satellite Simultaneous Nadir Overpasses (SNOs) Prediction Service
